Location: Aragüita
(10.0436°N, 67.8028°W)
Time: 12:33:43
(UTC+00:00)

YAOGAN 11 - Pass Details

Date: 14 April 2024
Orbit: 606 x 659 km, 98.4° (Epoch: 27 May)

Event Time Altitude Azimuth Distance (km) Brightness Sun altitude
Rises 09:40:36 0° 173° (S) 2,907 7.5 -10.6°
Reaches altitude 10° 09:42:47 10° 176° (S) 2,008 6.6 -10.1°
Maximum altitude 09:47:08 65° 258° (WSW) 699 4.1 -9.0°
Drops below altitude 10° 09:51:32 10° 340° (NNW) 2,039 6.6 -8.0°
Sets 09:53:46 0° 343° (NNW) 2,956 7.5 -7.4°
